{"data":{"norad_id":57621,"intl_designator":"2023-119V","name":"STARLINK-30150","alt_names":[],"object_type":"PAYLOAD","status":"ACTIVE","operator":null,"country":"US","launch_date":"2023-08-11","launch_site_code":"AFETR","launch_vehicle":null,"mission":null,"orbit_class":"UNKNOWN","rcs_meters":null,"size_class":null,"mass_kg":null,"dimensions":null,"purposes":["comms"],"wikipedia_slug":null,"has_3d_model":false,"image_url":null,"decayed_at":null,"tle_current":{"epoch":"2026-05-25T00:44:38.626368Z","epoch_age_seconds":73156,"freshness":"FRESH","line1":"1 57621U 23119V   26145.03100262 -.00000393  00000+0 -47355-5 0  9994","line2":"2 57621  43.0047  10.2897 0001285 271.4023  88.6681 15.27588494154766","mean_motion":15.27588494,"eccentricity":0.0001285,"inclination_deg":43.0047,"raan_deg":10.2897,"arg_perigee_deg":271.4023,"mean_anomaly_deg":88.6681,"bstar":-4.7355e-6,"rev_number":15476,"period_min":94.266224553011,"perigee_km":482.14200292073,"apogee_km":483.90532121088,"semimajor_km":6861.1606620658,"source":"CELESTRAK","updated_at":"2026-05-25T13:38:18.360680Z"}}}